Regional Weather Roundup
Issued by NWS

Home | Current Version | Previous Version | Graphics & Text | Print | Product List | Glossary On
Versions: 1 2 3 4 5 6 7 8 9 10 11 12 13 14 15 16 17 18 19 20 21 22 23 24 25 26 27 28 29 30 31 32 33 34 35 36 37 38 39 40 41 42 43 44 45 46 47 48 49 50
000
ASUS43 KOAX 220002
RWRNE

WEATHER ROUNDUP FOR NEBRASKA
NATIONAL WEATHER SERVICE OMAHA NE
700 PM CDT THU AUG 21 2014

NOTES: SATELLITE DATA IS BEING USED TO AUGMENT CLOUD COVER ABOVE
       12000 FEET.
       "FAIR" INDICATES FEW OR NO CLOUDS BELOW 12,000 FEET WITH NO
       SIGNIFICANT WEATHER AND/OR OBSTRUCTIONS TO VISIBILITY.

  * THESE STATIONS DO NOT REPORT WEATHER SUCH AS RAIN...SNOW OR FOG.

NEZ001>004-019>022-054>056-220100-
NEBRASKA PANHANDLE

CITY           SKY/WX    TMP DP  RH WIND       PRES   REMARKS
SCOTTSBLUFF    PTSUNNY   89  44  20 CALM      29.99S
6HR MIN TEMP:  81; 6HR MAX TEMP:  90;

ALLIANCE       MOSUNNY   85  48  27 S5        29.98S
6HR MIN TEMP:  83; 6HR MAX TEMP:  89;

CHADRON        MOSUNNY   87  53  31 SE21      29.92F
6HR MIN TEMP:  83; 6HR MAX TEMP:  90;

KIMBALL        PTSUNNY   80  45  28 W3        30.05S
SIDNEY         MOSUNNY   85  47  26 E6        30.03S
6HR MIN TEMP:  84; 6HR MAX TEMP:  90;

$$

NEZ057>060-069>072-079>082-220100-
SOUTHWEST NEBRASKA

CITY           SKY/WX    TMP DP  RH WIND       PRES   REMARKS
NORTH PLATTE   SUNNY     85  62  46 NE8       29.92R
6HR MIN TEMP:  85; 6HR MAX TEMP:  90;

IMPERIAL       SUNNY     90  51  26 NW6       29.95S
6HR MIN TEMP:  85; 6HR MAX TEMP:  92;

LEXINGTON      MOSUNNY   87  72  60 NE3       29.89S HX  93
MCCOOK         MOSUNNY   93  50  23 NW6       29.89S HX  90
6HR MIN TEMP:  91; 6HR MAX TEMP:  97;

OGALLALA       MOSUNNY   87  53  30 NE3       29.94S
$$

NEZ005>010-023>029-035>040-094-220100-
NORTH CENTRAL NEBRASKA

CITY           SKY/WX    TMP DP  RH WIND       PRES   REMARKS
VALENTINE      MOSUNNY   87  56  34 MISG      29.93S
6HR MIN TEMP:  83; 6HR MAX TEMP:  90;

AINSWORTH      SUNNY     82  64  53 NE5       29.94R
BROKEN BOW     SUNNY     87  67  51 NE7       29.91S HX  90
6HR MIN TEMP:  84; 6HR MAX TEMP:  90;

O`NEILL        SUNNY     86  71  60 N5        29.90S HX  91
ORD            SUNNY     88  70  55 N3        29.86F HX  93
6HR MIN TEMP:  83; 6HR MAX TEMP:  90;

THEDFORD       SUNNY     87  61  41 NE6       29.96S
$$

NEZ041-046>049-061>064-073>077-083>087-220100-
SOUTH CENTRAL NEBRASKA

CITY           SKY/WX    TMP DP  RH WIND       PRES   REMARKS
GRAND ISLAND   MOSUNNY   87  71  58 NE3       29.86S HX  93
6HR MIN TEMP:  84; 6HR MAX TEMP:  89;

AURORA         SUNNY     85  76  73 E3        29.85F HX  95
HASTINGS       MOSUNNY   85  72  65 NE8       29.85F HX  91
6HR MIN TEMP:  76; 6HR MAX TEMP:  87; 6HR PCP:  0.01;

HEBRON         MOSUNNY   83  71  66 CALM      29.82R
HOLDREGE       SUNNY     85  72  63 CALM      29.87S HX  91
KEARNEY *      MOSUNNY   88  72  58 N5        29.88R HX  94
YORK           SUNNY     84 N/A N/A N5        29.85S
$$

NEZ011>018-030>034-042>045-220100-
NORTHEAST NEBRASKA

CITY           SKY/WX    TMP DP  RH WIND       PRES   REMARKS
NORFOLK        SUNNY     89  71  55 VRB3      29.84S HX  95
6HR MIN TEMP:  87; 6HR MAX TEMP:  90;

ALBION         SUNNY     85  70  60 NE7       29.86S HX  90
BLAIR          SUNNY     89  72  57 CALM      29.85S HX  95
FREMONT        SUNNY     89  69  51 CALM      29.84F HX  93
TEKAMAH        SUNNY     88  74  63 W5        29.82F HX  96
6HR MIN TEMP:  88; 6HR MAX TEMP:  93;

WAYNE          SUNNY     86  76  70 CALM      29.85S HX  96
$$

NEZ050>053-065>068-078-088>093-220100-
SOUTHEAST NEBRASKA

CITY           SKY/WX    TMP DP  RH WIND       PRES   REMARKS
LINCOLN        MOSUNNY   89  72  56 N5        29.83F HX  96
6HR MIN TEMP:  84; 6HR MAX TEMP:  90;

OMAHA EPPLEY   MOSUNNY   91  69  48 S3        29.82F HX  96
6HR MIN TEMP:  84; 6HR MAX TEMP:  93;

BEATRICE       SUNNY     90  75  62 NE3       29.81F HX 100
FALLS CITY     SUNNY     95  71  45 S10       29.80S HX 102
6HR MIN TEMP:  91; 6HR MAX TEMP: 100;

NEBRASKA CITY  SUNNY     84  76  75 NE7       29.83F HX  93
PLATTSMOUTH    MOSUNNY   87  74  65 NE5       29.84F HX  95
$$

NEZ044-045-051>053-067-220100-
OMAHA AREA

CITY           SKY/WX    TMP DP  RH WIND       PRES   REMARKS
OMAHA EPPLEY   MOSUNNY   91  69  48 S3        29.82F HX  96
6HR MIN TEMP:  84; 6HR MAX TEMP:  93;

BLAIR          SUNNY     89  72  57 CALM      29.85S HX  95
FREMONT        SUNNY     89  69  51 CALM      29.84F HX  93
MILLARD        MOSUNNY   90  71  53 SW5       29.83S HX  96
OFFUTT AFB     SUNNY     87  78  75 SE2       29.83F HX 100
PLATTSMOUTH    MOSUNNY   87  74  65 NE5       29.84F HX  95
WAHOO          FAIR      88  71  58 CALM      29.83F HX  94
$$



USA.gov is the U.S. government's official web portal to all federal, state and local government web resources and services.